CZ-4 DEB, 28067

Orbit data source: Space-Track

CZ-4 DEB, 28067 is space debris in SSO originally from a launch on Thu, 14 Oct 1999 UTC launched from the Taiyaun Space Center, China (TSC). Debris objects in space refer to the collection of defunct objects orbiting the Earth. Examples of debris include non-operational satellites, rocket bodies, and fragments generated from explosions, collisions, or faulty payload assembly.

Loading next visibility...
Identifier
28067, 1999-057MX
Orbit
SSO
Country
Flag of CNCN / PRC
Related business
Manufacturer
Unknown
Mission
Spacecraft
Bus & Motor
Unknown
Mass
Unknown
Launch date (UTC)
1999-10-14 (26 years ago)
Launch vehicle
Unknown
Launch site
Taiyaun Space Center, China (TSC)
Object type
Payload
Rocket body
Debris
Shape & HBR
Unknown shape, 0.1 m
Radar Cross Section
Small (<0.1 m²)

Expand to show TLE details & history
Last TLE update: 1 day ago

TLE from 1 day ago
0 CZ-4 DEB
1 28067U 99057MX  25348.15250900  .00007421  00000-0  12690-2 0  9991
2 28067  98.4300  56.2091 0065955 312.1598  47.4014 14.67740618216497
Epoch: 2025-12-14T03:39Z
TLE epoch observation values (Epoch: 2025-12-14T03:39:36.777Z)
Latitude
-0.00005°
Longitude
-81.76366°
Altitude
639.983 km
Speed
7.555 km/s
True Right ascension
03h 44m 50s
True Declination
0° 00' 00"
Sunlit
Object was in full shadow at epoch
Visualization orbit readout
Latitude
Unknown
Longitude
Unknown
Altitude
Unknown
Speed
Unknown
Apparent Right ascension
Unknown
Apparent Declination
Unknown
Sunlit
N/A
Visualization observer readout
Local Sidereal Time
13:25:43
Azimuth
Unknown
Elevation
Unknown
Doppler factor
Unknown
Orbital elements
Apogee altitude
711.827 km
Perigee altitude
618.916 km
Semi-major axis
7,043.509 km
Eccentricity
0.0066
Inclination
98.43°
RAAN
56.2091°
Arg. of periapsis
312.1598°
True anomaly
47.96086°
Mean anomaly
47.4014°
Eccentric anomaly
47.68082°
Mean motion
3.67164 °/min
Orbital period
98.05 mins
BSTAR
0.001269
Loading maneuver chart data...
Computing Atmospheric mass density...
Loading historical data...
Loading historical data...
Loading historical data...
Loading historical data...
Loading historical data...
Loading historical data...
Loading historical data...

Documentation

Showing up to 5 results
|